Regional Weather Roundup
Issued by NWS

Home | Current Version | Previous Version | Graphics & Text | Print | Product List | Glossary On
Versions: 1 2 3 4 5 6 7 8 9 10 11 12 13 14 15 16 17 18 19 20 21 22 23 24 25 26 27 28 29 30 31 32 33 34 35 36 37 38 39 40 41 42 43 44 45 46 47 48 49 50
000
ASUS43 KIND 251659
RWRIN

WEATHER ROUNDUP FOR INDIANA
NATIONAL WEATHER SERVICE INDIANAPOLIS IN
1200 PM EST SAT FEB 25 2017

NOTE: "FAIR" INDICATES FEW OR NO CLOUDS BELOW 12,000 FEET WITH NO
SIGNIFICANT WEATHER AND/OR OBSTRUCTIONS TO VISIBILITY.

* - STATION DOES NOT REPORT WEATHER SUCH AS PRECIPITATION OR FOG.

+ - STATION NOT QUALITY CONTROLLED BY THE NATIONAL WEATHER SERVICE.
    USE DATA WITH CAUTION...ESPECIALLY DEWPOINT AND RELATIVE
    HUMIDITY OBSERVATIONS.

INZ001>003-010>013-019-020-251800-
NORTHWEST INDIANA

CITY           SKY/WX    TMP DP  RH WIND       PRES   REMARKS
GARY /AIRPORT/ FLURRIES  25  14  63 W21       29.86R WCI  10
KNOX *+        CLOUDY    27   0  31 W21G26    29.83R WCI  13
MICHIGAN CITY+ LGT SNOW  25  18  74 W12G21    29.83R WCI  14
RENSSELAER +     N/A     27  18  69 W22       29.87R WCI  12

$$

LMZ046-743>745-251800-
SOUTHERN LAKE MICHIGAN

STATION/POSITION TIME  TEMP    WIND        PRES    WAVE
                       AIR SEA DIR/SP/G            HT
                 (UTC) (F)     (DEG/KT/KT) (MB)    (FT)
BURNS HARBOR     1640   25     280/ 19/ 24 1010.5R
MICHIGAN CITY    1630   24     260/ 24/ 27   N/A

$$

INZ004-005-014>016-021>024-251800-
NORTH CENTRAL INDIANA

CITY           SKY/WX    TMP DP  RH WIND       PRES   REMARKS
GOSHEN         CLOUDY    27  17  66 W20       29.77R WCI  13
SOUTH BEND     LGT SNOW  23  17  78 W15G26    29.80R WCI  10

$$

INZ006>009-017-018-025>027-251800-
NORTHEAST INDIANA

CITY           SKY/WX    TMP DP  RH WIND       PRES   REMARKS
ANGOLA *+      CLOUDY    27  19  74 W15       29.72R WCI  15
FORT WAYNE     FLURRIES  29  19  66 W29G36    29.76R WCI  14
KENDALLVILLE + CLOUDY    27  20  76 W17G26    29.74R WCI  14

$$

INZ028-029-035-036-043>045-051>053-251800-
WEST CENTRAL INDIANA

CITY           SKY/WX    TMP DP  RH WIND       PRES   REMARKS
LAFAYETTE      LGT SNOW  25  19  78 W21G30    29.89R WCI  11
TERRE HAUTE    FLURRIES  29  17  61 W20G25    29.97R WCI  16

$$

INZ030>032-037>040-046>048-054>057-064-065-251800-
CENTRAL INDIANA

CITY           SKY/WX    TMP DP  RH WIND       PRES   REMARKS
COLUMBUS       PTSUNNY   30  19  64 W24G32    29.92R WCI  16
GREENWOOD *+   CLOUDY    29  22  74 W15G25    29.90R WCI  17
INDIANAPOLIS   LGT SNOW  27  19  72 W22G33    29.90R WCI  13
-EAGLE CREEK   FLURRIES  28  19  69 W16G28    29.88R WCI  16
KOKOMO +       FLURRIES  26  18  71 W30G36    29.85R WCI  10
MT COMFORT *+  CLOUDY    27  23  86 W22G28    29.87R WCI  12
SHELBYVILLE    CLOUDY    30  19  63 W23G29    29.88R WCI  17

$$

INZ033-034-041-042-049-050-058-059-251800-
EAST CENTRAL INDIANA

CITY           SKY/WX    TMP DP  RH WIND       PRES   REMARKS
MUNCIE         CLOUDY    30  19  63 W18G33    29.82R WCI  18

$$

INZ060-061-067>069-081>083-085>088-251800-
SOUTHWEST INDIANA

CITY           SKY/WX    TMP DP  RH WIND       PRES   REMARKS
EVANSVILLE     CLOUDY    35  19  52 W14       30.03S WCI  26
HUNTINGBURG *+ MIX PCPN  32  19  58 W17G25    30.00S WCI  21

$$

INZ062-063-066-070>080-084-089>092-251800-
SOUTH CENTRAL AND SOUTHEAST INDIANA

CITY           SKY/WX    TMP DP  RH WIND       PRES   REMARKS
BLOOMINGTON    CLOUDY    29  15  56 NW22G31   29.93R WCI  15
MADISON *+     CLOUDY    32  19  59 W16G28    29.94R WCI  21
SEYMOUR +      CLOUDY    32  19  59 W26G32    29.95R WCI  18

$$




USA.gov is the U.S. government's official web portal to all federal, state and local government web resources and services.